Weather History for KHYA - January, 2013

Change the Weather History Date:

Wednesday, January 16, 2013

  Actual Average Record
Temperature  
Mean Temperature 40 °F -  
Max Temperature 42 °F 35 °F 54 °F (1953)
Min Temperature 37 °F 17 °F -7 °F (2004)
Degree Days  
Heating Degree Days 26    
Moisture  
Dew Point 38 °F    
Average Humidity 95    
Maximum Humidity 100    
Minimum Humidity 79    
Precipitation  
Precipitation 0.64 in - - ()
Sea Level Pressure  
Sea Level Pressure 29.94 in    
Wind  
Wind Speed 5 mph (North)    
Max Wind Speed 12 mph    
Max Gust Speed 22 mph    
Visibility 5 miles    
Events Rain    
Averages and records for this station are not official NWS values.
T = Trace of Precipitation, MM = Missing Value Source: NWS Daily Summary

Daily Weather History Graph

Daily Weather History Graph

Search for Another Location

Airport or City:

Trip Planner

Search our weather history database for the weather conditions in past years. The results will help you decide how hot, cold, wet, or windy it might be!

Date:

Astronomy

Jan. 16, 2013 Rise Set
Actual Time 7:05 AM EST 4:37 PM EST
Civil Twilight 6:34 AM EST 5:07 PM EST
Nautical Twilight 6:00 AM EST 5:42 PM EST
Astronomical Twilight 5:27 AM EST 6:15 PM EST
Moon 9:34 AM EST (1/16) 10:31 PM EST (1/16)
Length of Visible Light 10h 33m
Length of Day
9h 32m
Waxing Crescent, 28% of the Moon is Illuminated
Jan 16
Waxing Crescent
Jan 18
First Quarter
Jan 26
Full
Feb 3
Last Quarter
Feb 10
New

Hourly Weather History & Observations

Time (EST) Temp. Windchill Dew Point Humidity Pressure Visibility Wind Dir Wind Speed Gust Speed Precip Events Conditions
12:56 AM 39.9 °F 36.7 °F 34.0 °F 79% 30.20 in 10.0 mi North 4.6 mph - N/A   Overcast
1:15 AM 39.2 °F 37.0 °F 35.6 °F 87% 30.20 in 10.0 mi North 3.5 mph - 0.00 in Rain Light Rain
1:56 AM 37.9 °F 34.4 °F 36.0 °F 93% 30.21 in 8.0 mi North 4.6 mph - 0.04 in Rain Light Rain
2:56 AM 37.9 °F - 37.0 °F 97% 30.18 in 8.0 mi Calm Calm - 0.02 in Rain Light Rain
3:26 AM 37.4 °F - 37.4 °F 100% 30.15 in 10.0 mi Calm Calm - 0.01 in Rain Light Rain
3:56 AM 39.0 °F 35.7 °F 37.0 °F 93% 30.13 in 8.0 mi NNE 4.6 mph - 0.02 in Rain Light Rain
4:05 AM 39.2 °F 35.9 °F 37.4 °F 93% 30.12 in 8.0 mi NNE 4.6 mph - 0.00 in Rain Light Rain
4:52 AM 39.2 °F - 37.4 °F 93% 30.11 in 7.0 mi Calm Calm - 0.04 in Rain Light Rain
4:56 AM 37.9 °F 35.5 °F 37.9 °F 100% 30.12 in 6.0 mi North 3.5 mph - 0.04 in Rain Light Rain
5:56 AM 39.0 °F 34.8 °F 37.9 °F 96% 30.12 in 6.0 mi North 5.8 mph - 0.07 in Rain Light Rain
6:49 AM 39.2 °F 35.9 °F 37.4 °F 93% 30.06 in 4.0 mi NE 4.6 mph - 0.09 in Rain Rain
6:56 AM 39.0 °F 35.7 °F 39.0 °F 100% 30.06 in 4.0 mi NE 4.6 mph - 0.11 in Rain Rain
7:56 AM 39.0 °F - 39.0 °F 100% 30.08 in 4.0 mi Calm Calm - 0.13 in Rain Rain
8:48 AM 39.2 °F 35.9 °F 39.2 °F 100% 30.05 in 5.0 mi ESE 4.6 mph - 0.09 in Rain Light Rain
8:56 AM 39.9 °F 36.7 °F 39.0 °F 97% 30.06 in 4.0 mi ESE 4.6 mph - 0.10 in Rain Light Rain
9:03 AM 41.0 °F 37.1 °F 39.2 °F 93% 30.05 in 3.0 mi Variable 5.8 mph - 0.01 in Rain Light Rain
9:56 AM 39.9 °F 33.4 °F 39.0 °F 97% 29.99 in 6.0 mi SE 10.4 mph 20.7 mph 0.05 in Rain Light Rain
10:56 AM 41.0 °F 34.3 °F 39.0 °F 93% 29.90 in 10.0 mi ESE 11.5 mph 21.9 mph 0.00 in   Overcast
11:34 AM 41.0 °F 36.4 °F 39.2 °F 93% 29.86 in 3.0 mi East 6.9 mph 16.1 mph 0.00 in Rain Light Rain
11:36 AM 41.0 °F 34.3 °F 39.2 °F 93% 29.86 in 2.5 mi ESE 11.5 mph 18.4 mph 0.00 in Rain Light Rain
11:38 AM 41.0 °F 35.8 °F 39.2 °F 93% 29.87 in 3.0 mi ESE 8.1 mph 18.4 mph 0.01 in Rain Light Rain
11:45 AM 41.0 °F 37.1 °F 39.2 °F 93% 29.87 in 3.0 mi Variable 5.8 mph - 0.01 in Rain Light Rain
11:56 AM 41.0 °F 36.4 °F 39.0 °F 93% 29.87 in 3.0 mi ESE 6.9 mph - 0.01 in Rain Light Rain
12:56 PM 41.0 °F 38.0 °F 39.9 °F 96% 29.86 in 3.0 mi Variable 4.6 mph - 0.01 in   Overcast
1:03 PM 41.0 °F 39.0 °F 39.2 °F 93% 29.86 in 2.0 mi Variable 3.5 mph - N/A   Overcast
1:56 PM 41.0 °F 39.0 °F 39.9 °F 96% 29.85 in 3.0 mi North 3.5 mph - 0.02 in Rain Light Rain
2:52 PM 41.0 °F 39.0 °F 39.2 °F 93% 29.75 in 10.0 mi ESE 3.5 mph - 0.02 in   Overcast
2:56 PM 41.0 °F 39.0 °F 39.9 °F 96% 29.75 in 2.0 mi SE 3.5 mph - 0.02 in   Overcast
3:56 PM 42.1 °F 37.7 °F 42.1 °F 100% 29.78 in 2.0 mi NW 6.9 mph - N/A   Overcast
4:03 PM 42.8 °F 38.0 °F 41.0 °F 93% 29.78 in 4.0 mi NW 8.1 mph - N/A   Overcast
4:18 PM 41.0 °F 36.4 °F 39.2 °F 93% 29.79 in 2.0 mi NW 6.9 mph - N/A   Overcast
4:56 PM 41.0 °F 36.4 °F 39.9 °F 96% 29.82 in 2.5 mi NW 6.9 mph - N/A   Overcast
5:09 PM 41.0 °F 36.4 °F 39.2 °F 93% 29.81 in 3.0 mi NW 6.9 mph - N/A   Overcast
5:56 PM 39.9 °F 35.1 °F 39.0 °F 97% 29.82 in 2.0 mi NW 6.9 mph - N/A   Overcast
6:24 PM 39.2 °F 35.0 °F 39.2 °F 100% 29.81 in 1.8 mi NNW 5.8 mph - N/A   Overcast
6:33 PM 39.2 °F 35.9 °F 39.2 °F 100% 29.82 in 2.0 mi WNW 4.6 mph - N/A   Overcast
6:56 PM 39.0 °F 36.8 °F 39.0 °F 100% 29.83 in 4.0 mi NW 3.5 mph - N/A   Overcast
7:56 PM 39.0 °F 36.8 °F 39.0 °F 100% 29.83 in 6.0 mi WNW 3.5 mph - N/A   Overcast
8:56 PM 39.0 °F 36.8 °F 39.0 °F 100% 29.83 in 7.0 mi WSW 3.5 mph - N/A   Overcast
9:31 PM 37.4 °F 32.1 °F 37.4 °F 100% 29.83 in 10.0 mi WSW 6.9 mph - N/A   Overcast
9:56 PM 37.9 °F 33.5 °F 37.0 °F 97% 29.84 in 9.0 mi West 5.8 mph - N/A   Overcast
10:56 PM 37.0 °F 29.8 °F 36.0 °F 96% 29.84 in 10.0 mi West 10.4 mph - N/A   Overcast
11:56 PM 37.0 °F 30.4 °F 35.1 °F 93% 29.85 in 10.0 mi West 9.2 mph - N/A   Overcast